Location: Breezy Point Observatory
(38.9725°N, 81.7133°W)
Time: 01:11:53
(UTC-05:00)

Hubble Space Telescope - Visible Passes

Search period start: 22 February 2017 00:00
Search period end: 04 March 2017 00:00
Orbit: 538 x 542 km, 28.5° (Epoch: 21 February)

Date Brightness Start Highest point End Pass type
(mag) Time Alt. Az. Time Alt. Az. Time Alt. Az.
25 Feb 3.1 19:19:05 10° S 19:20:33 12° SSE 19:22:00 10° SE visible
26 Feb 3.0 19:08:24 10° SSW 19:10:27 13° SSE 19:12:29 10° SE visible
26 Feb 3.6 20:48:03 10° SW 20:48:15 11° SW 20:48:15 11° SW visible
27 Feb 2.9 18:57:57 10° SSW 19:00:21 15° SSE 19:02:45 10° SE visible
27 Feb 3.3 20:37:59 10° SW 20:38:56 14° SW 20:38:56 14° SW visible
28 Feb 2.9 18:47:38 10° SSW 18:50:15 16° S 18:52:54 10° SE visible
28 Feb 3.0 20:27:58 10° SW 20:29:36 16° SSW 20:29:36 16° SSW visible
01 Mar 2.9 20:18:00 10° SW 20:20:16 17° SSW 20:20:16 17° SSW visible
02 Mar 2.9 20:08:04 10° SW 20:10:41 16° S 20:10:57 16° S visible
03 Mar 3.0 19:58:14 10° SW 20:00:35 15° SSW 20:01:39 14° S visible
